QPF
0.00 0.00 0.00 0.00 0.00 0.00 0.00 0.00 0.00 0.00 0.00 0.00 0.00 0.01 0.01 0.02 0.02 0.02 0.02 0.02 0.02 0.03 0.03 0.05 0.08 0.12 0.16 0.25 0.24 0.26 0.32 0.42 0.42 0.37 0.33 0.30 0.27 0.27 0.27 0.31 0.30 0.29 0.27 0.23
0.00 0.00 0.00 0.00 0.00 0.00 0.00 0.00 0.00 0.00 0.00 0.00 0.01 0.01 0.02 0.02 0.02 0.02 0.02 0.02 0.02 0.03 0.04 0.05 0.08 0.13 0.18 0.25 0.32 0.37 0.41 0.56 0.57 0.47 0.46 0.45 0.39 0.36 0.34 0.32 0.33 0.34 0.31 0.28
0.00 0.00 0.00 0.00 0.00 0.00 0.00 0.00 0.00 0.00 0.01 0.01 0.01 0.02 0.03 0.03 0.03 0.03 0.03 0.03 0.03 0.04 0.05 0.07 0.09 0.15 0.23 0.31 0.35 0.43 0.47 0.61 0.69 0.62 0.54 0.49 0.46 0.41 0.36 0.30 0.27 0.27 0.24 0.23
0.00 0.00 0.00 0.00 0.00 0.00 0.00 0.00 0.00 0.01 0.00 0.01 0.01 0.02 0.04 0.04 0.04 0.04 0.04 0.04 0.04 0.04 0.05 0.06 0.07 0.13 0.22 0.26 0.33 0.42 0.56 0.59 0.64 0.63 0.65 0.58 0.45 0.41 0.38 0.32 0.27 0.24 0.22 0.20
0.00 0.00 0.00 0.00 0.00 0.00 0.00 0.00 0.00 0.01 0.00 0.01 0.01 0.02 0.03 0.04 0.03 0.03 0.03 0.04 0.06 0.05 0.06 0.06 0.06 0.09 0.17 0.23 0.24 0.27 0.36 0.41 0.47 0.50 0.53 0.56 0.51 0.44 0.38 0.29 0.23 0.19 0.17 0.15
0.00 0.00 0.00 0.00 0.00 0.00 0.00 0.00 0.00 0.01 0.01 0.01 0.01 0.01 0.03 0.04 0.05 0.05 0.04 0.04 0.05 0.05 0.05 0.06 0.07 0.08 0.13 0.15 0.16 0.19 0.23 0.26 0.28 0.33 0.34 0.37 0.40 0.37 0.30 0.22 0.17 0.14 0.13 0.11
0.00 0.00 0.00 0.00 0.00 0.00 0.00 0.00 0.01 0.01 0.00 0.01 0.01 0.02 0.03 0.04 0.05 0.06 0.06 0.07 0.07 0.06 0.05 0.05 0.06 0.12 0.13 0.11 0.14 0.16 0.17 0.19 0.18 0.18 0.20 0.22 0.23 0.24 0.22 0.19 0.16 0.12 0.11 0.09
0.00 0.00 0.00 0.00 0.00 0.00 0.00 0.00 0.00 0.00 0.00 0.01 0.03 0.03 0.04 0.04 0.04 0.06 0.08 0.08 0.06 0.05 0.05 0.05 0.08 0.15 0.15 0.12 0.11 0.12 0.14 0.15 0.13 0.12 0.14 0.16 0.18 0.17 0.16 0.15 0.13 0.10 0.09 0.08
0.00 0.00 0.00 0.00 0.00 0.00 0.00 0.00 0.00 0.00 0.00 0.01 0.02 0.03 0.06 0.06 0.07 0.09 0.10 0.08 0.07 0.05 0.04 0.04 0.05 0.09 0.14 0.16 0.12 0.10 0.09 0.11 0.11 0.11 0.12 0.11 0.11 0.11 0.10 0.10 0.10 0.09 0.08 0.07
0.00 0.00 0.00 0.00 0.00 0.00 0.00 0.00 0.00 0.00 0.00 0.00 0.01 0.02 0.05 0.09 0.12 0.15 0.11 0.06 0.05 0.06 0.05 0.04 0.04 0.04 0.08 0.15 0.15 0.13 0.10 0.10 0.12 0.11 0.10 0.08 0.08 0.10 0.09 0.08 0.06 0.06 0.05 0.05
0.00 0.00 0.00 0.00 0.00 0.00 0.00 0.00 0.00 0.00 0.00 0.01 0.01 0.01 0.02 0.05 0.06 0.10 0.11 0.07 0.05 0.05 0.05 0.04 0.04 0.05 0.05 0.09 0.15 0.18 0.15 0.13 0.12 0.10 0.09 0.06 0.05 0.05 0.06 0.05 0.04 0.03 0.02 0.02
0.00 0.00 0.00 0.00 0.00 0.00 0.01 0.00 0.00 0.00 0.00 0.01 0.01 0.01 0.02 0.03 0.05 0.07 0.09 0.07 0.06 0.07 0.06 0.05 0.06 0.08 0.08 0.10 0.13 0.15 0.17 0.16 0.14 0.11 0.09 0.06 0.04 0.03 0.03 0.03 0.02 0.02 0.02 0.03
0.00 0.00 0.00 0.00 0.01 0.00 0.00 0.00 0.01 0.00 0.00 0.00 0.01 0.01 0.04 0.06 0.04 0.05 0.07 0.09 0.09 0.10 0.09 0.08 0.08 0.11 0.13 0.11 0.11 0.10 0.12 0.12 0.11 0.09 0.08 0.05 0.03 0.02 0.02 0.02 0.01 0.01 0.01 0.02
0.00 0.00 0.00 0.00 0.01 0.01 0.01 0.01 0.01 0.00 0.00 0.00 0.01 0.01 0.04 0.09 0.07 0.06 0.07 0.07 0.07 0.09 0.10 0.09 0.09 0.11 0.13 0.11 0.07 0.07 0.07 0.07 0.07 0.06 0.06 0.04 0.03 0.02 0.01 0.01 0.01 0.00 0.00 0.01
0.00 0.00 0.00 0.00 0.01 0.01 0.01 0.01 0.01 0.01 0.01 0.01 0.00 0.01 0.02 0.05 0.05 0.05 0.09 0.07 0.06 0.08 0.08 0.06 0.07 0.11 0.12 0.10 0.08 0.06 0.05 0.05 0.05 0.05 0.05 0.04 0.02 0.01 0.01 0.00 0.00 0.00 0.00 0.00
0.00 0.00 0.00 0.00 0.01 0.01 0.01 0.01 0.01 0.01 0.01 0.01 0.01 0.01 0.02 0.03 0.04 0.05 0.07 0.06 0.05 0.06 0.08 0.08 0.08 0.12 0.12 0.08 0.06 0.05 0.05 0.04 0.03 0.02 0.02 0.03 0.02 0.01 0.00 0.00 0.00 0.00 0.00 0.00
0.00 0.00 0.00 0.00 0.00 0.01 0.01 0.02 0.01 0.01 0.01 0.01 0.01 0.02 0.03 0.06 0.07 0.06 0.06 0.07 0.05 0.06 0.08 0.10 0.09 0.09 0.08 0.06 0.05 0.03 0.03 0.02 0.02 0.02 0.02 0.02 0.01 0.00 0.00 0.00 0.00 0.00 0.00 0.00
0.00 0.00 0.00 0.01 0.01 0.01 0.01 0.01 0.00 0.00 0.01 0.01 0.01 0.01 0.02 0.04 0.03 0.03 0.05 0.07 0.06 0.07 0.07 0.06 0.05 0.05 0.04 0.04 0.04 0.03 0.02 0.03 0.02 0.02 0.01 0.01 0.00 0.00 0.00 0.00 0.00 0.00 0.00 0.00
0.00 0.00 0.00 0.01 0.01 0.01 0.01 0.01 0.00 0.00 0.01 0.02 0.02 0.01 0.01 0.01 0.02 0.02 0.04 0.06 0.08 0.09 0.08 0.07 0.06 0.04 0.04 0.03 0.03 0.02 0.02 0.02 0.01 0.01 0.01 0.00 0.00 0.00 0.00 0.00 0.00 0.00 0.00 0.00
0.00 0.00 0.00 0.00 0.01 0.02 0.01 0.00 0.00 0.00 0.01 0.02 0.02 0.02 0.02 0.02 0.02 0.02 0.03 0.04 0.06 0.06 0.06 0.07 0.07 0.07 0.06 0.05 0.04 0.03 0.02 0.01 0.01 0.01 0.00 0.00 0.00 0.00 0.00 0.00 0.00 0.00 0.00 0.00
0.00 0.00 0.00 0.00 0.00 0.00 0.00 0.00 0.00 0.01 0.01 0.01 0.01 0.01 0.01 0.01 0.02 0.01 0.02 0.03 0.04 0.04 0.05 0.05 0.06 0.06 0.05 0.05 0.06 0.05 0.03 0.02 0.02 0.02 0.01 0.01 0.01 0.00 0.00 0.00 0.00 0.00 0.00 0.00
0.00 0.00 0.00 0.00 0.00 0.00 0.00 0.00 0.00 0.00 0.00 0.00 0.00 0.01 0.01 0.01 0.01 0.01 0.02 0.03 0.03 0.03 0.04 0.05 0.06 0.07 0.06 0.04 0.05 0.05 0.04 0.03 0.02 0.02 0.01 0.01 0.00 0.00 0.00 0.00 0.00 0.00 0.00 0.00
0.00 0.00 0.00 0.00 0.00 0.00 0.00 0.00 0.00 0.00 0.00 0.00 0.00 0.00 0.01 0.01 0.01 0.01 0.01 0.02 0.02 0.03 0.03 0.03 0.04 0.04 0.05 0.06 0.05 0.04 0.04 0.02 0.02 0.01 0.01 0.00 0.00 0.00 0.00 0.00 0.00 0.00 0.00 0.00
0.00 0.00 0.00 0.00 0.00 0.00 0.00 0.00 0.00 0.00 0.00 0.00 0.00 0.00 0.00 0.00 0.00 0.01 0.01 0.01 0.02 0.02 0.02 0.02 0.02 0.03 0.03 0.04 0.04 0.04 0.03 0.03 0.02 0.01 0.00 0.00 0.00 0.00 0.00 0.00 0.00 0.00 0.00 0.00
0.00 0.00 0.00 0.00 0.00 0.00 0.00 0.00 0.00 0.00 0.00 0.00 0.00 0.00 0.00 0.00 0.00 0.00 0.00 0.01 0.01 0.01 0.01 0.01 0.01 0.02 0.02 0.02 0.02 0.02 0.02 0.02 0.01 0.01 0.00 0.00 0.00 0.00 0.00 0.00 0.00 0.00 0.00 0.00
0.00 0.00 0.00 0.00 0.00 0.00 0.00 0.00 0.00 0.00 0.00 0.00 0.00 0.00 0.00 0.00 0.00 0.00 0.00 0.00 0.01 0.01 0.01 0.01 0.01 0.01 0.01 0.01 0.01 0.01 0.01 0.01 0.01 0.00 0.00 0.00 0.00 0.00 0.00 0.00 0.00 0.00 0.00 0.00
MSLP
1012.15 1012.77 1013.21 1013.44 1013.48 1013.39 1013.22 1013.03 1012.89 1012.82 1012.81 1012.86 1012.94 1013.01 1013.04 1013.02 1012.96 1012.87 1012.76 1012.67 1012.61 1012.59 1012.61 1012.66 1012.72 1012.77 1012.79 1012.79 1012.77 1012.76 1012.77 1012.83 1012.98 1013.21 1013.54 1013.97 1014.48 1015.04 1015.62 1016.21 1016.77 1017.28 1017.75 1018.14
1012.40 1012.87 1013.15 1013.25 1013.21 1013.09 1012.96 1012.89 1012.90 1013.00 1013.17 1013.38 1013.57 1013.72 1013.80 1013.81 1013.76 1013.69 1013.63 1013.60 1013.62 1013.68 1013.76 1013.85 1013.89 1013.88 1013.81 1013.67 1013.49 1013.30 1013.16 1013.09 1013.15 1013.33 1013.65 1014.10 1014.64 1015.26 1015.90 1016.55 1017.16 1017.73 1018.24 1018.67
1012.51 1012.81 1012.93 1012.90 1012.78 1012.66 1012.61 1012.66 1012.84 1013.12 1013.46 1013.80 1014.10 1014.31 1014.42 1014.44 1014.40 1014.35 1014.32 1014.35 1014.45 1014.59 1014.75 1014.87 1014.93 1014.88 1014.72 1014.46 1014.14 1013.81 1013.54 1013.37 1013.36 1013.52 1013.84 1014.32 1014.92 1015.60 1016.32 1017.02 1017.69 1018.30 1018.84 1019.30
1012.49 1012.63 1012.59 1012.45 1012.29 1012.20 1012.22 1012.41 1012.76 1013.21 1013.70 1014.16 1014.53 1014.78 1014.89 1014.90 1014.85 1014.81 1014.81 1014.89 1015.06 1015.28 1015.50 1015.67 1015.74 1015.67 1015.45 1015.10 1014.68 1014.25 1013.88 1013.65 1013.60 1013.75 1014.10 1014.63 1015.29 1016.04 1016.82 1017.59 1018.31 1018.95 1019.51 1019.97
1012.39 1012.38 1012.23 1012.01 1011.84 1011.79 1011.92 1012.25 1012.74 1013.34 1013.95 1014.49 1014.91 1015.16 1015.26 1015.23 1015.16 1015.10 1015.12 1015.24 1015.46 1015.74 1016.03 1016.25 1016.34 1016.26 1016.01 1015.60 1015.12 1014.62 1014.20 1013.93 1013.87 1014.04 1014.43 1015.01 1015.74 1016.55 1017.39 1018.21 1018.96 1019.62 1020.19 1020.64
1012.26 1012.14 1011.91 1011.67 1011.52 1011.54 1011.78 1012.23 1012.85 1013.56 1014.25 1014.83 1015.25 1015.48 1015.53 1015.47 1015.36 1015.28 1015.30 1015.45 1015.72 1016.06 1016.40 1016.67 1016.79 1016.72 1016.45 1016.03 1015.51 1014.99 1014.55 1014.27 1014.22 1014.41 1014.84 1015.47 1016.25 1017.12 1018.00 1018.84 1019.60 1020.27 1020.82 1021.27
1012.13 1011.95 1011.70 1011.48 1011.39 1011.50 1011.84 1012.40 1013.12 1013.88 1014.60 1015.19 1015.58 1015.76 1015.75 1015.63 1015.48 1015.40 1015.42 1015.60 1015.91 1016.30 1016.70 1017.01 1017.16 1017.12 1016.88 1016.46 1015.95 1015.43 1014.99 1014.73 1014.70 1014.92 1015.38 1016.04 1016.84 1017.73 1018.62 1019.46 1020.22 1020.87 1021.40 1021.82
1012.04 1011.86 1011.64 1011.49 1011.48 1011.69 1012.12 1012.75 1013.51 1014.29 1015.00 1015.54 1015.87 1015.98 1015.92 1015.75 1015.58 1015.48 1015.53 1015.74 1016.10 1016.54 1016.99 1017.35 1017.56 1017.56 1017.35 1016.97 1016.49 1016.00 1015.60 1015.37 1015.36 1015.60 1016.07 1016.73 1017.53 1018.40 1019.27 1020.08 1020.81 1021.42 1021.92 1022.31
1011.99 1011.86 1011.72 1011.67 1011.76 1012.06 1012.56 1013.23 1013.98 1014.72 1015.36 1015.83 1016.08 1016.12 1016.01 1015.82 1015.64 1015.57 1015.66 1015.92 1016.33 1016.83 1017.33 1017.75 1018.01 1018.07 1017.92 1017.61 1017.19 1016.76 1016.40 1016.21 1016.22 1016.47 1016.92 1017.56 1018.32 1019.14 1019.96 1020.72 1021.39 1021.95 1022.41 1022.76
1011.99 1011.96 1011.93 1011.98 1012.18 1012.55 1013.08 1013.74 1014.44 1015.10 1015.65 1016.01 1016.17 1016.16 1016.01 1015.82 1015.68 1015.66 1015.81 1016.14 1016.61 1017.17 1017.74 1018.21 1018.53 1018.66 1018.59 1018.35 1018.02 1017.66 1017.38 1017.23 1017.27 1017.50 1017.93 1018.52 1019.22 1019.96 1020.70 1021.38 1021.98 1022.49 1022.89 1023.21
1012.02 1012.11 1012.21 1012.38 1012.67 1013.08 1013.60 1014.21 1014.82 1015.36 1015.78 1016.03 1016.11 1016.05 1015.90 1015.75 1015.67 1015.73 1015.97 1016.38 1016.93 1017.56 1018.18 1018.71 1019.09 1019.28 1019.29 1019.15 1018.92 1018.66 1018.45 1018.36 1018.42 1018.65 1019.05 1019.57 1020.19 1020.84 1021.48 1022.08 1022.61 1023.05 1023.41 1023.70
1012.07 1012.29 1012.52 1012.80 1013.14 1013.57 1014.06 1014.57 1015.05 1015.46 1015.74 1015.88 1015.89 1015.81 1015.69 1015.61 1015.62 1015.79 1016.13 1016.64 1017.26 1017.94 1018.61 1019.18 1019.61 1019.88 1019.97 1019.92 1019.79 1019.64 1019.52 1019.49 1019.59 1019.82 1020.18 1020.64 1021.17 1021.73 1022.29 1022.80 1023.27 1023.66 1023.99 1024.25
1012.14 1012.49 1012.84 1013.19 1013.58 1013.99 1014.41 1014.80 1015.15 1015.40 1015.55 1015.60 1015.56 1015.48 1015.42 1015.43 1015.56 1015.85 1016.30 1016.89 1017.58 1018.31 1019.00 1019.60 1020.07 1020.38 1020.54 1020.59 1020.56 1020.51 1020.48 1020.53 1020.67 1020.91 1021.24 1021.65 1022.11 1022.59 1023.07 1023.52 1023.93 1024.29 1024.60 1024.85
1012.25 1012.70 1013.14 1013.55 1013.95 1014.32 1014.65 1014.92 1015.12 1015.24 1015.27 1015.24 1015.18 1015.13 1015.14 1015.26 1015.51 1015.92 1016.48 1017.15 1017.88 1018.64 1019.34 1019.94 1020.42 1020.76 1020.98 1021.10 1021.17 1021.21 1021.28 1021.40 1021.59 1021.84 1022.16 1022.54 1022.94 1023.36 1023.78 1024.18 1024.56 1024.91 1025.21 1025.48
1012.40 1012.94 1013.44 1013.88 1014.26 1014.57 1014.81 1014.96 1015.04 1015.03 1014.98 1014.90 1014.83 1014.83 1014.92 1015.15 1015.53 1016.05 1016.70 1017.43 1018.19 1018.95 1019.63 1020.22 1020.69 1021.04 1021.30 1021.48 1021.61 1021.75 1021.90 1022.09 1022.32 1022.60 1022.92 1023.27 1023.63 1024.01 1024.39 1024.77 1025.13 1025.48 1025.80 1026.08
1012.62 1013.21 1013.73 1014.18 1014.53 1014.78 1014.93 1014.98 1014.95 1014.85 1014.73 1014.63 1014.58 1014.64 1014.82 1015.15 1015.64 1016.26 1016.98 1017.75 1018.53 1019.27 1019.92 1020.48 1020.92 1021.27 1021.54 1021.75 1021.95 1022.14 1022.36 1022.61 1022.88 1023.19 1023.51 1023.84 1024.19 1024.54 1024.90 1025.26 1025.62 1025.98 1026.32 1026.63
1012.90 1013.51 1014.03 1014.46 1014.77 1014.97 1015.04 1015.02 1014.91 1014.76 1014.61 1014.50 1014.48 1014.60 1014.86 1015.29 1015.87 1016.57 1017.34 1018.14 1018.92 1019.63 1020.25 1020.77 1021.18 1021.51 1021.77 1022.01 1022.24 1022.47 1022.74 1023.02 1023.33 1023.65 1023.98 1024.31 1024.64 1024.97 1025.32 1025.67 1026.04 1026.40 1026.76 1027.09
1013.24 1013.82 1014.32 1014.72 1014.99 1015.14 1015.17 1015.10 1014.95 1014.78 1014.62 1014.54 1014.56 1014.73 1015.07 1015.58 1016.22 1016.97 1017.78 1018.60 1019.37 1020.06 1020.65 1021.13 1021.51 1021.82 1022.08 1022.32 1022.56 1022.82 1023.11 1023.42 1023.74 1024.07 1024.40 1024.71 1025.03 1025.35 1025.68 1026.03 1026.40 1026.77 1027.13 1027.47
1013.57 1014.11 1014.57 1014.93 1015.17 1015.30 1015.31 1015.22 1015.08 1014.92 1014.78 1014.73 1014.80 1015.03 1015.42 1015.98 1016.67 1017.46 1018.29 1019.11 1019.88 1020.55 1021.12 1021.58 1021.94 1022.23 1022.48 1022.72 1022.96 1023.23 1023.53 1023.84 1024.17 1024.49 1024.81 1025.12 1025.43 1025.74 1026.05 1026.39 1026.74 1027.10 1027.46 1027.80
1013.85 1014.34 1014.76 1015.08 1015.31 1015.43 1015.45 1015.39 1015.28 1015.16 1015.07 1015.06 1015.18 1015.45 1015.88 1016.47 1017.19 1017.99 1018.83 1019.65 1020.42 1021.09 1021.65 1022.10 1022.46 1022.74 1022.99 1023.22 1023.46 1023.72 1024.01 1024.32 1024.63 1024.95 1025.26 1025.56 1025.85 1026.15 1026.45 1026.77 1027.10 1027.44 1027.78 1028.09
1014.02 1014.46 1014.84 1015.15 1015.38 1015.52 1015.59 1015.59 1015.54 1015.48 1015.46 1015.51 1015.67 1015.98 1016.43 1017.03 1017.75 1018.55 1019.39 1020.21 1020.97 1021.64 1022.21 1022.66 1023.02 1023.31 1023.55 1023.78 1024.01 1024.26 1024.53 1024.83 1025.13 1025.44 1025.74 1026.03 1026.32 1026.60 1026.89 1027.18 1027.49 1027.80 1028.10 1028.38
1014.05 1014.44 1014.80 1015.11 1015.37 1015.58 1015.72 1015.80 1015.85 1015.88 1015.94 1016.06 1016.27 1016.60 1017.06 1017.65 1018.36 1019.14 1019.95 1020.76 1021.51 1022.18 1022.75 1023.21 1023.57 1023.86 1024.11 1024.33 1024.55 1024.78 1025.04 1025.32 1025.61 1025.91 1026.20 1026.49 1026.78 1027.06 1027.34 1027.62 1027.90 1028.17 1028.43 1028.67
1013.92 1014.29 1014.65 1015.00 1015.32 1015.60 1015.85 1016.05 1016.21 1016.36 1016.51 1016.70 1016.96 1017.31 1017.77 1018.34 1019.01 1019.75 1020.53 1021.30 1022.03 1022.68 1023.24 1023.70 1024.07 1024.35 1024.59 1024.80 1025.01 1025.22 1025.46 1025.73 1026.01 1026.31 1026.61 1026.91 1027.20 1027.49 1027.76 1028.03 1028.28 1028.52 1028.74 1028.93
1013.66 1014.04 1014.43 1014.83 1015.24 1015.63 1016.00 1016.33 1016.63 1016.90 1017.16 1017.43 1017.73 1018.10 1018.55 1019.09 1019.72 1020.40 1021.12 1021.83 1022.52 1023.14 1023.67 1024.11 1024.46 1024.74 1024.96 1025.15 1025.34 1025.53 1025.76 1026.01 1026.29 1026.60 1026.91 1027.23 1027.54 1027.84 1028.12 1028.37 1028.61 1028.82 1028.99 1029.13
1013.33 1013.74 1014.18 1014.66 1015.16 1015.68 1016.19 1016.67 1017.11 1017.51 1017.88 1018.23 1018.59 1018.97 1019.41 1019.91 1020.47 1021.08 1021.72 1022.37 1022.99 1023.55 1024.03 1024.43 1024.75 1025.00 1025.19 1025.36 1025.52 1025.70 1025.91 1026.16 1026.44 1026.76 1027.09 1027.43 1027.76 1028.07 1028.36 1028.61 1028.83 1029.00 1029.14 1029.23
1012.99 1013.45 1013.96 1014.52 1015.13 1015.77 1016.42 1017.04 1017.63 1018.16 1018.64 1019.07 1019.48 1019.88 1020.30 1020.76 1021.25 1021.78 1022.34 1022.90 1023.43 1023.91 1024.33 1024.68 1024.94 1025.15 1025.31 1025.44 1025.58 1025.74 1025.94 1026.18 1026.47 1026.80 1027.15 1027.51 1027.86 1028.18 1028.47 1028.72 1028.91 1029.06 1029.16 1029.21
Thickness
5685 5672 5665 5668 5671 5673 5671 5667 5663 5672 5684 5680 5674 5673 5677 5683 5685 5686 5688 5691 5693 5694 5698 5701 5704 5706 5707 5708 5707 5705 5704 5706 5706 5705 5704 5702 5701 5700 5698 5697 5697 5697 5698 5697
5670 5666 5677 5680 5677 5671 5666 5661 5661 5669 5680 5677 5669 5667 5670 5675 5676 5677 5679 5680 5681 5684 5688 5690 5692 5695 5696 5697 5697 5697 5696 5696 5698 5698 5698 5696 5694 5692 5691 5688 5687 5687 5689 5689
5669 5676 5686 5682 5676 5670 5666 5662 5664 5665 5669 5670 5666 5658 5662 5666 5670 5671 5670 5670 5671 5674 5675 5677 5679 5682 5685 5686 5687 5688 5687 5688 5689 5690 5690 5688 5686 5683 5680 5678 5677 5677 5679 5679
5671 5679 5682 5680 5676 5674 5665 5677 5673 5669 5659 5650 5657 5642 5653 5659 5660 5661 5661 5661 5661 5662 5664 5665 5667 5669 5672 5673 5675 5677 5678 5680 5679 5681 5681 5679 5675 5671 5667 5667 5667 5666 5667 5667
5673 5681 5680 5676 5680 5680 5675 5681 5674 5667 5657 5646 5647 5640 5644 5654 5653 5653 5653 5652 5652 5653 5654 5655 5656 5657 5660 5661 5664 5666 5668 5667 5667 5668 5669 5668 5665 5660 5656 5656 5656 5655 5654 5655
5677 5685 5685 5684 5687 5685 5681 5672 5662 5651 5645 5635 5642 5637 5638 5648 5651 5649 5646 5645 5645 5645 5646 5646 5647 5648 5649 5651 5653 5655 5656 5656 5656 5657 5658 5658 5654 5650 5647 5646 5644 5642 5642 5642
5668 5677 5684 5688 5679 5677 5671 5653 5635 5632 5624 5628 5640 5637 5638 5648 5651 5648 5642 5639 5637 5637 5636 5636 5636 5637 5638 5639 5641 5643 5645 5644 5645 5645 5645 5644 5643 5641 5638 5635 5632 5631 5630 5629
5653 5654 5675 5681 5677 5669 5664 5655 5633 5625 5621 5623 5633 5633 5637 5643 5643 5641 5637 5633 5630 5627 5626 5626 5625 5625 5626 5627 5628 5630 5632 5632 5632 5632 5631 5630 5630 5628 5624 5621 5620 5619 5618 5616
5651 5654 5675 5680 5680 5673 5661 5650 5649 5631 5625 5617 5623 5631 5634 5636 5634 5632 5628 5625 5621 5618 5617 5616 5615 5615 5615 5614 5615 5617 5619 5618 5618 5618 5618 5616 5616 5614 5611 5608 5607 5606 5604 5604
5663 5654 5667 5674 5677 5669 5663 5650 5635 5627 5617 5613 5621 5625 5627 5629 5626 5625 5621 5617 5614 5610 5607 5606 5605 5604 5603 5603 5603 5605 5606 5605 5604 5604 5604 5603 5601 5599 5597 5595 5593 5592 5591 5590
5666 5651 5655 5661 5656 5654 5655 5647 5632 5621 5622 5612 5610 5619 5635 5631 5627 5623 5617 5612 5607 5602 5598 5596 5594 5592 5592 5592 5592 5591 5591 5591 5591 5590 5589 5588 5586 5584 5583 5581 5579 5578 5577 5576
5658 5644 5639 5650 5659 5661 5655 5647 5634 5625 5618 5614 5611 5615 5630 5629 5625 5619 5612 5605 5599 5594 5590 5587 5585 5582 5580 5579 5579 5577 5577 5576 5576 5575 5575 5573 5572 5571 5569 5567 5566 5565 5564 5563
5657 5642 5631 5635 5642 5650 5648 5643 5635 5625 5615 5610 5609 5615 5622 5620 5615 5610 5604 5597 5591 5585 5581 5577 5574 5572 5569 5568 5566 5565 5564 5563 5562 5562 5561 5559 5559 5558 5556 5554 5553 5552 5551 5549
5662 5641 5633 5629 5633 5640 5641 5640 5635 5627 5614 5612 5615 5616 5614 5610 5606 5600 5594 5588 5582 5577 5573 5568 5564 5561 5558 5557 5555 5553 5552 5551 5550 5549 5548 5547 5546 5545 5543 5542 5541 5540 5538 5537
5658 5642 5642 5642 5645 5644 5640 5637 5634 5628 5623 5617 5618 5614 5611 5606 5600 5593 5586 5579 5574 5568 5564 5559 5555 5550 5548 5546 5544 5543 5542 5541 5539 5538 5537 5535 5534 5533 5532 5530 5529 5527 5526 5524
5651 5643 5641 5637 5641 5640 5634 5633 5631 5626 5622 5618 5615 5609 5606 5600 5593 5586 5579 5574 5568 5562 5557 5552 5547 5543 5540 5537 5535 5533 5532 5531 5530 5529 5527 5525 5524 5522 5521 5519 5517 5516 5514 5512
5643 5640 5630 5626 5634 5634 5622 5627 5626 5622 5619 5615 5610 5605 5597 5591 5585 5579 5573 5567 5562 5555 5550 5544 5539 5535 5532 5528 5526 5524 5523 5522 5521 5519 5517 5516 5514 5513 5511 5510 5508 5505 5503 5501
5643 5632 5621 5621 5626 5617 5623 5630 5628 5619 5614 5612 5607 5600 5593 5586 5577 5571 5566 5560 5554 5547 5541 5536 5531 5527 5524 5521 5518 5516 5514 5512 5511 5510 5508 5507 5505 5503 5501 5500 5498 5495 5493 5491
5648 5636 5621 5614 5615 5617 5625 5628 5623 5617 5609 5606 5600 5592 5583 5575 5569 5560 5555 5551 5546 5539 5533 5528 5523 5519 5516 5513 5511 5508 5506 5504 5503 5501 5500 5498 5496 5494 5492 5490 5487 5485 5483 5481
5643 5637 5624 5615 5615 5611 5621 5629 5627 5617 5603 5601 5595 5586 5578 5572 5564 5554 5547 5542 5536 5530 5525 5520 5515 5511 5508 5505 5503 5501 5498 5497 5495 5494 5492 5491 5489 5487 5484 5481 5479 5477 5475 5473
5637 5629 5622 5616 5614 5616 5626 5627 5624 5605 5601 5598 5590 5582 5573 5565 5558 5547 5539 5533 5528 5522 5517 5512 5508 5503 5500 5498 5496 5494 5491 5489 5488 5487 5486 5484 5482 5480 5477 5475 5473 5471 5468 5466
5633 5627 5620 5612 5611 5613 5625 5623 5614 5606 5600 5592 5583 5574 5565 5555 5547 5539 5532 5525 5520 5514 5509 5505 5500 5496 5494 5492 5490 5488 5485 5484 5483 5481 5479 5477 5476 5475 5472 5469 5467 5464 5462 5460
5633 5631 5625 5619 5616 5618 5617 5617 5609 5603 5594 5586 5576 5567 5560 5550 5540 5532 5524 5518 5512 5507 5503 5499 5495 5491 5488 5486 5485 5483 5480 5479 5478 5476 5473 5471 5470 5468 5466 5464 5461 5458 5455 5453
5634 5630 5624 5620 5619 5617 5613 5609 5604 5599 5591 5582 5573 5564 5555 5545 5535 5526 5518 5511 5505 5501 5496 5493 5489 5486 5483 5481 5480 5478 5477 5475 5473 5471 5468 5466 5464 5462 5460 5458 5456 5453 5451 5449
5638 5631 5623 5620 5618 5615 5611 5605 5598 5591 5584 5575 5566 5558 5550 5541 5530 5521 5513 5506 5501 5496 5492 5488 5485 5482 5479 5477 5476 5474 5473 5471 5469 5467 5464 5462 5460 5457 5455 5453 5450 5449 5447 5445
5640 5636 5630 5628 5625 5618 5610 5602 5595 5588 5578 5570 5562 5551 5544 5536 5526 5518 5510 5503 5498 5493 5489 5484 5481 5478 5476 5475 5473 5472 5470 5469 5466 5464 5461 5458 5456 5454 5452 5450 5448 5446 5445 5444